Regional Weather Roundup
Issued by NWS

Home | Current Version | Previous Version | Text Only | Print | Product List | Glossary Off
Versions: 1 2 3 4 5 6 7 8 9 10 11 12 13 14 15 16 17 18 19 20 21 22 23 24 25 26 27 28 29 30 31 32 33 34 35 36 37 38 39 40 41 42 43 44 45 46 47 48 49 50

000
ASUS45 KCYS 010010
RWRWY

WYOMING REGIONAL WEATHER ROUNDUP
NATIONAL WEATHER SERVICE CHEYENNE WY
500 PM MST SAT JAN 31 2015

NOTE:  "FAIR" INDICATES FEW OR NO CLOUDS BELOW 12,000 FEET
WITH NO SIGNIFICANT WEATHER AND/OR OBSTRUCTIONS TO VISIBILITY.

WYZ001-010100-
YELLOWSTONE NATIONAL PARK

CITY           SKY/WX    TMP DP  RH WIND       PRES   REMARKS
LK YELLOWSTONE   N/A     24  10  55 VRB3      29.99R
6HR MIN TEMP:   0; 6HR MAX TEMP:  32;

W YELLOWSTONE  NOT AVBL

$$
WYZ002>013-054>058-071-098>099-010100-
NORTHERN WYOMING

CITY           SKY/WX    TMP DP  RH WIND       PRES   REMARKS
JACKSON        CLEAR     34   9  35 VRB7      29.98F WCI  28
CODY           CLOUDY    25  21  86 N21G29    30.03R WCI  10
GREYBULL       MOCLDY    29  22  75 NW28      29.98R WCI  14
6HR MIN TEMP:  28; 6HR MAX TEMP:  30;

WORLAND        FAIR      28  24  85 NW5       29.99R WCI  23
6HR MIN TEMP:  26; 6HR MAX TEMP:  32;

SHERIDAN       LGT SNOW  26  20  77 NW24      30.08R WCI  11
6HR MIN TEMP:  26; 6HR MAX TEMP:  42; 6HR PCP: TRACE;

BUFFALO          N/A     23  19  85 N33G46    29.97R FOG     WCI   5
6HR MIN TEMP:  23; 6HR MAX TEMP:  40; 6HR PCP: TRACE;

GILLETTE       LGT SNOW  27  23  85 NW24G30   29.96R VSB 3/4 WCI  12
6HR MIN TEMP:  27; 6HR MAX TEMP:  43; 6HR PCP: TRACE;

HULETT           N/A    N/A N/A N/A MISG        N/A
NEWCASTLE      CLOUDY    34  23  64 SE3       29.90R

$$
WYZ014>020-022>026-101>103-010100-
CENTRAL WYOMING

CITY           SKY/WX    TMP DP  RH WIND       PRES   REMARKS
BIG PINEY      FAIR      34  12  40 N17       29.96R WCI  23
6HR MIN TEMP:  30; 6HR MAX TEMP:  41;

PINEDALE       FAIR      30  12  47 NW15      29.95R WCI  19
DUBOIS         FAIR      32   3  29 NW28G35   29.90R WCI  18
LANDER         FAIR      36  16  44 NE10      29.89R WCI  28
6HR MIN TEMP:  33; 6HR MAX TEMP:  41;

RIVERTON       FAIR      37  18  46 NE16      29.91R WCI  28
6HR MIN TEMP:  32; 6HR MAX TEMP:  41;

CASPER         FAIR      33  21  61 N16       29.91R WCI  23
6HR MIN TEMP:  33; 6HR MAX TEMP:  43;

DOUGLAS        FAIR      37  20  50 N20G28    29.88R WCI  27
6HR MIN TEMP:  37; 6HR MAX TEMP:  46;


$$
WYZ021-027>030-104>119-010100-
SOUTHERN WYOMING

CITY           SKY/WX    TMP DP  RH WIND       PRES   REMARKS
EVANSTON       FAIR      39  22  50 NW5       30.02R
6HR MIN TEMP:  32; 6HR MAX TEMP:  41;

KEMMERER       FAIR      32  19  59 W10       30.00R WCI  24
FORT BRIDGER   FAIR      38  20  48 NW14G20   30.04R WCI  30
ROCK SPRINGS   FAIR      39   9  29 NW18G28   29.91R WCI  30
6HR MIN TEMP:  30; 6HR MAX TEMP:  41;

DIXON          FAIR      38  27  66 CALM      29.93R
RAWLINS        FAIR      38  19  46 W9        29.85S WCI  31
6HR MIN TEMP:  35; 6HR MAX TEMP:  42;

SARATOGA       CLOUDY    36  27  69 W12       29.87R WCI  27
LARAMIE        FAIR      31  19  61 N18       29.80S WCI  19
6HR MIN TEMP:  30; 6HR MAX TEMP:  38;

CHEYENNE       CLOUDY    33  29  85 N12       29.80R WCI  24
6HR MIN TEMP:  31; 6HR MAX TEMP:  39; 6HR PCP: TRACE;

TORRINGTON     CLOUDY    37  25  61 NE9       29.84R WCI  30
6HR MIN TEMP:  36; 6HR MAX TEMP:  41;

PINE BLUFFS    CLOUDY    32  30  93 N9        29.83R WCI  24

$$



USA.gov is the U.S. government's official web portal to all federal, state and local government web resources and services.